Home > Weather > Shantou > Past weeks

Flag for China Past Weather in Shantou, Guangdong, China — Yesterday and Last 2 Weeks

Now
97 °F

Scattered clouds.


Feels Like: 110 °F
Forecast: 81 / 94 °F
Wind: 6 mph from Southwest

Location: Shantou Airport

Current Time: Jun 25, 2016 at 1:18:38 PM

Latest Report: Jun 25, 2016 at 1:00 PM


Visibility: N/A

Pressure: 29.77 "Hg

Humidity: 50%

Dew Point: 75 °F

Location of ShantouLocation

Past Weather in Shantou — Graph

°F

Shantou Temperature Yesterday

Maximum temperature yesterday: 95 °F (at 1:00 PM)
Minimum temperature yesterday: 79 °F (at 5:00 AM)
Average temperature yesterday: 87 °F

High & Low Weather Summary for the Past Weeks

 TemperatureHumidityPressure
High97 °F (Jun 22, 3:00 PM)100% (Jun 12, 3:00 AM)29.92 "Hg (Jun 12, 3:00 AM)
Low77 °F (Jun 12, 5:00 AM)47% (Jun 23, 1:00 PM)29.62 "Hg (Jun 13, 4:00 PM)
Average85 °F83%29.76 "Hg
* Reported Jun 10 12:00 PM — Jun 25 12:00 PM, Shantou, Weather by CustomWeather, © 2016

Note: Actual official high and low records may vary slightly from our data, if they occured in-between our weather recording intervals... More about our weather records

Advertising

Shantou Weather History for the Previous 24 Hours

Scroll right to see more
 ConditionsComfort  
Time TempWeatherWind HumidityBarometerVisibility
12:00 PM
Sat, Jun 25
93 °FScattered clouds.6 mph56%29.80 "HgN/A
11:00 AM93 °FScattered clouds.3 mph59%29.80 "HgN/A
10:00 AM91 °FScattered clouds.3 mph59%29.83 "HgN/A
9:00 AM90 °FScattered clouds.3 mph71%29.83 "HgN/A
8:00 AM86 °FPassing clouds.3 mph79%29.83 "HgN/A
7:00 AM84 °FClear.No wind89%29.80 "Hg5 mi
6:00 AM81 °FClear.1 mph94%29.80 "Hg4 mi
5:00 AM81 °FClear.1 mph94%29.77 "Hg5 mi
4:00 AM81 °FClear.1 mph100%29.77 "Hg10 mi
3:00 AM82 °FClear.1 mph89%29.77 "Hg10 mi
2:00 AM81 °FClear.No wind94%29.77 "Hg10 mi
1:00 AM84 °FClear.No wind84%29.80 "Hg10 mi
12:00 AM86 °FClear.1 mph79%29.80 "Hg10 mi
11:00 PM
Fri, Jun 24
84 °FClear.No wind84%29.80 "Hg10 mi
10:00 PM86 °FPassing clouds.3 mph75%29.80 "HgN/A
9:00 PM86 °FPassing clouds.1 mph79%29.77 "HgN/A
8:00 PM88 °FPassing clouds.3 mph70%29.77 "HgN/A
7:00 PM88 °FPassing clouds.8 mph70%29.74 "HgN/A
6:00 PM90 °FPassing clouds.15 mph67%29.71 "HgN/A
5:00 PM91 °FPassing clouds.13 mph59%29.71 "HgN/A
4:00 PM95 °FPassing clouds.10 mph60%29.71 "HgN/A
3:00 PM95 °FPassing clouds.8 mph56%29.71 "HgN/A
2:00 PM95 °FScattered clouds.3 mph50%29.74 "HgN/A
1:00 PM95 °FScattered clouds.6 mph53%29.74 "HgN/A
Weather by CustomWeather, © 2016

See weather overviewHow to use our weather pages